Skip Navigation LinksHome page > Weather > Current weather Skip Navigation Links

Current Weather

Sarh, Chad

For information only: do not use for flight planning or navigation.
Latest weather
Observation time Saturday, July 4, 2015 12:00 AM WAT
Local time Saturday, July 4, 2015 12:42 AM WAT
Flight conditions Visual Meteorological Conditions
Winds
Wind speed calm
Visibility 6.2 mi.
Sky condition
Ceiling unlimited
Sky clear
Temperature 75°F
Dewpoint 73°F
Altimeter 29.97 in.Hg
Derived measurements
Relative humidity 94%
Density altitude 1726 ft.
Remarks
Ceiling and visibility OK.
METAR FTTA 032300Z 00000KT CAVOK 24/23 Q1015

Settings

Location code

InnerDrive.Weather 4.0.5567.0 Release CLR 4.0.30319.34014
Copyright ©2015 Inner Drive Technology. All rights reserved. Portions Copyright ©1986-2015 David Braverman.

Find weather

Site navigation


Skip Navigation Links

Place info

Page info

PayPal - The safer, easier way to pay online!

Return home.

Copyright ©2015 Inner Drive Technology. Purveyors of fine, hand-crafted computer software. Page printed 2015-07-03T23:42:26 UTC.